Location: Montbazon
(47.2835°N, 0.6999°E)
Time: 16:49:13
(UTC+00:00)

SL-08 RB Rocket - Pass Details

Date: 08 November 2025
Orbit: 632 x 667 km, 97.8° (Epoch: 12 December)

Event Time Altitude Azimuth Distance (km) Brightness Sun altitude
Rises 04:45:54 0° 9° (N) 3,015 7.2 -21.4°
Reaches altitude 10° 04:48:11 10° 4° (N) 2,094 6.3 -21.0°
Maximum altitude 04:52:37 52° 289° (WNW) 819 3.7 -20.3°
Enters shadow 04:53:28 45° 251° (WSW) 899 3.9 -20.1°
